Time,TemperatureF,DewpointF,PressureIn,WindDirection,WindDirectionDegrees,WindSpeedMPH,WindSpeedGustMPH,Humidity,HourlyPrecipIn,Conditions,Clouds,dailyrainin,SoftwareType,DateUTC
2013-03-22 00:00:00,24.0,13.6,30.00,ESE,118,0.0,0.0,64,0.00,,SKC,0.06,VWS V14.01,2013-03-22 04:00:00,
2013-03-22 00:01:00,24.0,14.0,30.00,ESE,119,0.0,0.0,65,0.00,,SKC,0.00,VWS V14.01,2013-03-22 04:01:00,
2013-03-22 00:06:00,23.9,13.9,30.00,ESE,119,0.0,0.0,65,0.00,,SKC,0.00,VWS V14.01,2013-03-22 04:06:00,
2013-03-22 00:11:00,23.8,13.4,30.00,ESE,119,0.0,0.0,64,0.00,,SKC,0.00,VWS V14.01,2013-03-22 04:11:00,
2013-03-22 00:16:00,23.8,13.4,30.00,ESE,119,0.0,0.0,64,0.00,,SKC,0.00,VWS V14.01,2013-03-22 04:16:00,
2013-03-22 00:21:00,23.8,13.4,30.00,ESE,119,0.0,0.0,64,0.00,,SKC,0.00,VWS V14.01,2013-03-22 04:21:00,
2013-03-22 00:26:00,23.7,14.0,30.00,ESE,119,0.0,0.0,66,0.00,,SKC,0.00,VWS V14.01,2013-03-22 04:26:00,
2013-03-22 00:31:00,23.6,13.9,30.00,ESE,118,0.0,0.0,66,0.00,,SKC,0.00,VWS V14.01,2013-03-22 04:31:00,
2013-03-22 00:36:00,23.4,13.7,30.01,ESE,119,0.0,0.0,66,0.00,,SKC,0.00,VWS V14.01,2013-03-22 04:36:00,
2013-03-22 00:41:00,23.4,13.0,30.01,ESE,119,0.0,0.0,64,0.00,,SKC,0.00,VWS V14.01,2013-03-22 04:41:00,
2013-03-22 00:46:00,23.5,13.1,30.01,ESE,119,0.0,0.0,64,0.00,,SKC,0.00,VWS V14.01,2013-03-22 04:46:00,
2013-03-22 00:51:00,23.5,13.5,30.01,ESE,119,0.0,0.0,65,0.00,,SKC,0.00,VWS V14.01,2013-03-22 04:51:00,
2013-03-22 00:56:00,23.4,13.4,30.01,ESE,118,0.0,0.0,65,0.00,,SKC,0.00,VWS V14.01,2013-03-22 04:56:00,
2013-03-22 01:01:00,23.1,13.4,30.01,ESE,118,0.0,0.0,66,0.00,,SKC,0.00,VWS V14.01,2013-03-22 05:01:00,
2013-03-22 01:06:00,23.0,13.0,30.01,ESE,119,0.0,0.0,65,0.00,,SKC,0.00,VWS V14.01,2013-03-22 05:06:00,
2013-03-22 01:11:00,22.8,13.2,30.01,ESE,119,0.0,0.0,66,0.00,,SKC,0.00,VWS V14.01,2013-03-22 05:11:00,
2013-03-22 01:16:00,22.7,13.1,30.01,ESE,119,0.0,0.0,66,0.00,,SKC,0.00,VWS V14.01,2013-03-22 05:16:00,
2013-03-22 01:21:00,22.5,13.6,30.00,ESE,119,0.0,0.0,68,0.00,,SKC,0.00,VWS V14.01,2013-03-22 05:21:00,
2013-03-22 01:26:00,22.3,13.0,30.01,ESE,118,0.0,0.0,67,0.00,,SKC,0.00,VWS V14.01,2013-03-22 05:26:00,
2013-03-22 01:31:00,22.2,13.3,30.00,ESE,118,0.0,0.0,68,0.00,,SKC,0.00,VWS V14.01,2013-03-22 05:31:00,
2013-03-22 01:36:00,22.1,12.8,30.01,ESE,119,0.0,0.0,67,0.00,,SKC,0.00,VWS V14.01,2013-03-22 05:36:00,
2013-03-22 01:41:00,22.1,12.8,30.00,ESE,118,0.0,0.0,67,0.00,,SKC,0.00,VWS V14.01,2013-03-22 05:41:00,
2013-03-22 01:46:00,22.0,12.7,30.00,ESE,118,0.0,0.0,67,0.00,,SKC,0.00,VWS V14.01,2013-03-22 05:46:00,
2013-03-22 01:51:00,21.9,12.6,30.00,ESE,119,0.0,0.0,67,0.00,,SKC,0.00,VWS V14.01,2013-03-22 05:51:00,
2013-03-22 01:56:00,21.8,12.9,30.00,ESE,119,0.0,0.0,68,0.00,,SKC,0.00,VWS V14.01,2013-03-22 05:56:00,
2013-03-22 02:01:00,21.6,13.0,30.00,ESE,118,0.0,0.0,69,0.00,,SKC,0.00,VWS V14.01,2013-03-22 06:01:00,
2013-03-22 02:06:00,21.5,13.6,30.00,ESE,118,0.0,0.0,71,0.00,,SKC,0.00,VWS V14.01,2013-03-22 06:06:00,
2013-03-22 02:11:00,21.3,13.4,30.01,ESE,119,0.0,0.0,71,0.00,,SKC,0.00,VWS V14.01,2013-03-22 06:11:00,
2013-03-22 02:16:00,21.2,13.0,30.01,ESE,118,0.0,0.0,70,0.00,,SKC,0.00,VWS V14.01,2013-03-22 06:16:00,
2013-03-22 02:21:00,21.1,12.9,30.01,ESE,118,0.0,0.0,70,0.00,,SKC,0.00,VWS V14.01,2013-03-22 06:21:00,
2013-03-22 02:26:00,21.2,13.0,30.01,ESE,119,0.0,0.0,70,0.00,,SKC,0.00,VWS V14.01,2013-03-22 06:26:00,
2013-03-22 02:31:00,21.2,12.6,30.01,ESE,119,0.0,0.0,69,0.00,,SKC,0.00,VWS V14.01,2013-03-22 06:31:00,
2013-03-22 02:36:00,21.1,12.9,30.01,ESE,119,0.0,0.0,70,0.00,,SKC,0.00,VWS V14.01,2013-03-22 06:36:00,
2013-03-22 02:41:00,21.0,12.8,30.01,ESE,118,0.0,0.0,70,0.00,,SKC,0.00,VWS V14.01,2013-03-22 06:41:00,
2013-03-22 02:46:00,21.0,13.1,30.01,ESE,118,0.0,0.0,71,0.00,,SKC,0.00,VWS V14.01,2013-03-22 06:46:00,
2013-03-22 02:51:00,20.9,13.0,30.01,ESE,118,0.0,0.0,71,0.00,,SKC,0.00,VWS V14.01,2013-03-22 06:51:00,
2013-03-22 02:56:00,20.8,13.5,30.01,ESE,118,0.0,0.0,73,0.00,,SKC,0.00,VWS V14.01,2013-03-22 06:56:00,
2013-03-22 03:01:00,20.6,13.6,30.02,ESE,119,0.0,0.0,74,0.00,,SKC,0.00,VWS V14.01,2013-03-22 07:01:00,
2013-03-22 03:06:00,20.5,13.9,30.02,ESE,118,0.0,0.0,75,0.00,,SKC,0.00,VWS V14.01,2013-03-22 07:06:00,
2013-03-22 03:11:00,20.5,13.2,30.02,ESE,119,0.0,0.0,73,0.00,,SKC,0.00,VWS V14.01,2013-03-22 07:11:00,
2013-03-22 03:16:00,20.5,13.2,30.02,ESE,119,0.0,0.0,73,0.00,,SKC,0.00,VWS V14.01,2013-03-22 07:16:00,
2013-03-22 03:21:00,20.5,13.5,30.02,ESE,118,0.0,0.0,74,0.00,,SKC,0.00,VWS V14.01,2013-03-22 07:21:00,
2013-03-22 03:27:00,20.3,13.0,30.02,ESE,119,0.0,0.0,73,0.00,,SKC,0.00,VWS V14.01,2013-03-22 07:27:00,
2013-03-22 03:32:00,20.2,12.9,30.02,ESE,118,0.0,0.0,73,0.00,,SKC,0.00,VWS V14.01,2013-03-22 07:32:00,
2013-03-22 03:37:00,20.3,13.0,30.02,ESE,118,0.0,0.0,73,0.00,,SKC,0.00,VWS V14.01,2013-03-22 07:37:00,
2013-03-22 03:42:00,20.3,13.4,30.03,ESE,119,0.0,0.0,74,0.00,,SKC,0.00,VWS V14.01,2013-03-22 07:42:00,
2013-03-22 03:47:00,20.3,13.4,30.02,ESE,119,0.0,0.0,74,0.00,,SKC,0.00,VWS V14.01,2013-03-22 07:47:00,
2013-03-22 03:52:00,20.3,13.7,30.02,ESE,119,0.0,0.0,75,0.00,,SKC,0.00,VWS V14.01,2013-03-22 07:52:00,
2013-03-22 03:57:00,20.2,13.6,30.02,ESE,119,0.0,0.0,75,0.00,,SKC,0.00,VWS V14.01,2013-03-22 07:57:00,
2013-03-22 04:02:00,20.3,13.7,30.03,ESE,118,0.0,0.0,75,0.00,,SKC,0.00,VWS V14.01,2013-03-22 08:02:00,
2013-03-22 04:07:00,20.5,13.9,30.02,ESE,119,0.0,0.0,75,0.00,,SKC,0.00,VWS V14.01,2013-03-22 08:07:00,
2013-03-22 04:12:00,20.7,14.0,30.02,ESE,119,0.0,0.0,75,0.00,,SKC,0.00,VWS V14.01,2013-03-22 08:12:00,
2013-03-22 04:17:00,20.9,14.2,30.02,ESE,119,0.0,0.0,75,0.00,,SKC,0.00,VWS V14.01,2013-03-22 08:17:00,
2013-03-22 04:22:00,20.9,14.2,30.02,ESE,118,0.0,0.0,75,0.00,,SKC,0.00,VWS V14.01,2013-03-22 08:22:00,
2013-03-22 04:27:00,20.8,13.8,30.02,ESE,118,0.0,0.0,74,0.00,,SKC,0.00,VWS V14.01,2013-03-22 08:27:00,
2013-03-22 04:32:00,20.7,14.4,30.02,ESE,119,0.0,0.0,76,0.00,,SKC,0.00,VWS V14.01,2013-03-22 08:32:00,
2013-03-22 04:37:00,20.6,14.2,30.02,ESE,119,0.0,0.0,76,0.00,,SKC,0.00,VWS V14.01,2013-03-22 08:37:00,
2013-03-22 04:42:00,20.4,14.1,30.02,ESE,118,0.0,0.0,76,0.00,,SKC,0.00,VWS V14.01,2013-03-22 08:42:00,
2013-03-22 04:47:00,20.3,14.3,30.02,ESE,118,0.0,0.0,77,0.00,,SKC,0.00,VWS V14.01,2013-03-22 08:47:00,
2013-03-22 04:52:00,20.2,13.9,30.02,ESE,118,0.0,0.0,76,0.00,,SKC,0.00,VWS V14.01,2013-03-22 08:52:00,
2013-03-22 04:57:00,20.1,14.1,30.02,ESE,119,0.0,0.0,77,0.00,,SKC,0.00,VWS V14.01,2013-03-22 08:57:00,
2013-03-22 05:02:00,20.1,14.1,30.02,ESE,118,0.0,0.0,77,0.00,,SKC,0.00,VWS V14.01,2013-03-22 09:02:00,
2013-03-22 05:07:00,20.2,14.2,30.02,ESE,119,1.0,1.0,77,0.00,,SKC,0.00,VWS V14.01,2013-03-22 09:07:00,
2013-03-22 05:12:00,20.2,14.2,30.02,ESE,119,0.0,0.0,77,0.00,,SKC,0.00,VWS V14.01,2013-03-22 09:12:00,
2013-03-22 05:17:00,20.2,14.2,30.02,ESE,119,0.0,0.0,77,0.00,,SKC,0.00,VWS V14.01,2013-03-22 09:17:00,
2013-03-22 05:22:00,20.1,14.4,30.02,ESE,118,0.0,0.0,78,0.00,,SKC,0.00,VWS V14.01,2013-03-22 09:22:00,
2013-03-22 05:27:00,20.0,14.3,30.02,ESE,118,0.0,0.0,78,0.00,,SKC,0.00,VWS V14.01,2013-03-22 09:27:00,
2013-03-22 05:32:00,20.0,14.3,30.02,ESE,119,0.0,0.0,78,0.00,,SKC,0.00,VWS V14.01,2013-03-22 09:32:00,
2013-03-22 05:37:00,20.0,14.3,30.02,ESE,118,0.0,0.0,78,0.00,,SKC,0.00,VWS V14.01,2013-03-22 09:37:00,
2013-03-22 05:42:00,20.1,14.1,30.02,ESE,119,0.0,0.0,77,0.00,,SKC,0.00,VWS V14.01,2013-03-22 09:42:00,
2013-03-22 05:47:00,20.0,14.0,30.02,ESE,119,0.0,0.0,77,0.00,,SKC,0.00,VWS V14.01,2013-03-22 09:47:00,
2013-03-22 05:52:00,20.0,14.3,30.02,ESE,118,0.0,0.0,78,0.00,,SKC,0.00,VWS V14.01,2013-03-22 09:52:00,
2013-03-22 05:57:00,20.1,14.4,30.03,ESE,119,0.0,0.0,78,0.00,,SKC,0.00,VWS V14.01,2013-03-22 09:57:00,
2013-03-22 06:02:00,20.2,14.4,30.03,ESE,119,0.0,0.0,78,0.00,,SKC,0.00,VWS V14.01,2013-03-22 10:02:00,
2013-03-22 06:07:00,20.3,14.3,30.03,ESE,119,0.0,0.0,77,0.00,,SKC,0.00,VWS V14.01,2013-03-22 10:07:00,
2013-03-22 06:12:00,20.6,14.8,30.03,ESE,119,0.0,0.0,78,0.00,,SKC,0.00,VWS V14.01,2013-03-22 10:12:00,
2013-03-22 06:17:00,20.8,14.7,30.03,ESE,119,0.0,0.0,77,0.00,,SKC,0.00,VWS V14.01,2013-03-22 10:17:00,
2013-03-22 06:22:00,21.1,15.0,30.04,ESE,119,0.0,0.0,77,0.00,,SKC,0.00,VWS V14.01,2013-03-22 10:22:00,
2013-03-22 06:27:00,21.3,15.2,30.03,ESE,119,0.0,0.0,77,0.00,,SKC,0.00,VWS V14.01,2013-03-22 10:27:00,
2013-03-22 06:32:00,21.4,15.0,30.03,ESE,119,0.0,0.0,76,0.00,,SKC,0.00,VWS V14.01,2013-03-22 10:32:00,
2013-03-22 06:37:00,21.5,15.4,30.04,ESE,119,0.0,0.0,77,0.00,,SKC,0.00,VWS V14.01,2013-03-22 10:37:00,
2013-03-22 06:42:00,21.4,15.0,30.04,ESE,119,0.0,0.0,76,0.00,,SKC,0.00,VWS V14.01,2013-03-22 10:42:00,
2013-03-22 06:47:00,21.3,14.6,30.04,ESE,119,0.0,0.0,75,0.00,,SKC,0.00,VWS V14.01,2013-03-22 10:47:00,
2013-03-22 06:52:00,21.3,14.6,30.04,ESE,119,0.0,0.0,75,0.00,,SKC,0.00,VWS V14.01,2013-03-22 10:52:00,
2013-03-22 06:57:00,21.3,14.9,30.04,ESE,118,0.0,0.0,76,0.00,,SKC,0.00,VWS V14.01,2013-03-22 10:57:00,
2013-03-22 07:02:00,21.4,14.7,30.04,ESE,119,0.0,0.0,75,0.00,,SKC,0.00,VWS V14.01,2013-03-22 11:02:00,
2013-03-22 07:07:00,21.4,14.7,30.04,ESE,119,0.0,0.0,75,0.00,,SKC,0.00,VWS V14.01,2013-03-22 11:07:00,
2013-03-22 07:12:00,21.4,14.4,30.05,ESE,118,0.0,0.0,74,0.00,,SKC,0.00,VWS V14.01,2013-03-22 11:12:00,
2013-03-22 07:17:00,21.3,14.6,30.05,ESE,119,0.0,0.0,75,0.00,,SKC,0.00,VWS V14.01,2013-03-22 11:17:00,
2013-03-22 07:22:00,21.2,14.5,30.05,ESE,119,0.0,0.0,75,0.00,,SKC,0.00,VWS V14.01,2013-03-22 11:22:00,
2013-03-22 07:27:00,21.2,14.5,30.05,ESE,119,0.0,0.0,75,0.00,,SKC,0.00,VWS V14.01,2013-03-22 11:27:00,
2013-03-22 07:32:00,21.1,14.4,30.05,ESE,119,0.0,0.0,75,0.00,,SKC,0.00,VWS V14.01,2013-03-22 11:32:00,
2013-03-22 07:37:00,21.1,14.7,30.05,ESE,119,0.0,0.0,76,0.00,,SKC,0.00,VWS V14.01,2013-03-22 11:37:00,
2013-03-22 07:42:00,21.0,14.6,30.06,ESE,119,0.0,0.0,76,0.00,,SKC,0.00,VWS V14.01,2013-03-22 11:42:00,
2013-03-22 07:47:00,20.9,14.2,30.06,ESE,119,0.0,0.0,75,0.00,,SKC,0.00,VWS V14.01,2013-03-22 11:47:00,
2013-03-22 07:52:00,20.9,14.2,30.06,ESE,119,0.0,0.0,75,0.00,,SKC,0.00,VWS V14.01,2013-03-22 11:52:00,
2013-03-22 07:57:00,21.0,14.0,30.06,ESE,118,0.0,0.0,74,0.00,,SKC,0.00,VWS V14.01,2013-03-22 11:57:00,
2013-03-22 08:02:00,21.2,14.5,30.06,ESE,118,0.0,0.0,75,0.00,,SKC,0.00,VWS V14.01,2013-03-22 12:02:00,
2013-03-22 08:07:00,21.4,14.7,30.06,ESE,119,0.0,0.0,75,0.00,,SKC,0.00,VWS V14.01,2013-03-22 12:07:00,
2013-03-22 08:12:00,21.7,14.4,30.07,ESE,118,1.0,1.0,73,0.00,,SKC,0.00,VWS V14.01,2013-03-22 12:12:00,
2013-03-22 08:17:00,22.1,13.8,30.07,ESE,118,0.0,1.0,70,0.00,,SKC,0.00,VWS V14.01,2013-03-22 12:17:00,
2013-03-22 08:22:00,22.4,14.1,30.06,ESE,118,0.0,0.0,70,0.00,,SKC,0.00,VWS V14.01,2013-03-22 12:22:00,
2013-03-22 08:27:00,22.6,14.0,30.06,ESE,119,1.0,1.0,69,0.00,,SKC,0.00,VWS V14.01,2013-03-22 12:27:00,
2013-03-22 08:32:00,22.7,13.7,30.06,ESE,119,0.0,0.0,68,0.00,,SKC,0.00,VWS V14.01,2013-03-22 12:32:00,
2013-03-22 08:37:00,22.9,13.9,30.07,ESE,119,0.0,0.0,68,0.00,,SKC,0.00,VWS V14.01,2013-03-22 12:37:00,
2013-03-22 08:42:00,23.0,13.7,30.07,ESE,118,0.0,1.0,67,0.00,,SKC,0.00,VWS V14.01,2013-03-22 12:42:00,
2013-03-22 08:47:00,23.3,14.0,30.07,ESE,118,0.0,0.0,67,0.00,,SKC,0.00,VWS V14.01,2013-03-22 12:47:00,
2013-03-22 08:52:00,23.8,14.5,30.07,ESE,118,1.0,2.0,67,0.00,,SKC,0.00,VWS V14.01,2013-03-22 12:52:00,
2013-03-22 08:57:00,24.1,14.4,30.07,ESE,113,1.0,1.0,66,0.00,,SKC,0.00,VWS V14.01,2013-03-22 12:57:00,
2013-03-22 09:02:00,24.4,15.0,30.07,ESE,113,0.0,0.0,67,0.00,,SKC,0.00,VWS V14.01,2013-03-22 13:02:00,
2013-03-22 09:07:00,24.7,14.3,30.07,ESE,113,1.0,1.0,64,0.00,,SKC,0.00,VWS V14.01,2013-03-22 13:07:00,
2013-03-22 09:12:00,25.0,14.2,30.07,ESE,113,0.0,0.0,63,0.00,,SKC,0.00,VWS V14.01,2013-03-22 13:12:00,
2013-03-22 09:17:00,25.2,14.4,30.07,ESE,113,0.0,0.0,63,0.00,,SKC,0.00,VWS V14.01,2013-03-22 13:17:00,
2013-03-22 09:22:00,25.8,15.3,30.07,ESE,113,0.0,1.0,64,0.00,,SKC,0.00,VWS V14.01,2013-03-22 13:22:00,
2013-03-22 09:27:00,26.7,15.4,30.07,ESE,113,0.0,1.0,62,0.00,,SKC,0.00,VWS V14.01,2013-03-22 13:27:00,
2013-03-22 09:32:00,27.1,15.1,30.06,ESE,113,0.0,1.0,60,0.00,,SKC,0.00,VWS V14.01,2013-03-22 13:32:00,
2013-03-22 09:37:00,27.4,15.7,30.07,ESE,113,0.0,0.0,61,0.00,,SKC,0.00,VWS V14.01,2013-03-22 13:37:00,
2013-03-22 09:42:00,27.9,15.4,30.07,ESE,113,2.0,2.0,59,0.00,,SKC,0.00,VWS V14.01,2013-03-22 13:42:00,
2013-03-22 09:47:00,28.4,16.3,30.07,ESE,113,0.0,1.0,60,0.00,,SKC,0.00,VWS V14.01,2013-03-22 13:47:00,
2013-03-22 09:52:00,28.8,15.5,30.07,ESE,113,1.0,1.0,57,0.00,,SKC,0.00,VWS V14.01,2013-03-22 13:52:00,
2013-03-22 09:57:00,28.8,15.5,30.07,ESE,113,0.0,0.0,57,0.00,,SKC,0.00,VWS V14.01,2013-03-22 13:57:00,
2013-03-22 10:02:00,29.0,15.7,30.07,ESE,113,1.0,2.0,57,0.00,,SKC,0.00,VWS V14.01,2013-03-22 14:02:00,
2013-03-22 10:07:00,29.1,15.4,30.07,ESE,113,0.0,0.0,56,0.00,,SKC,0.00,VWS V14.01,2013-03-22 14:07:00,
2013-03-22 10:12:00,29.0,15.3,30.07,ESE,113,0.0,1.0,56,0.00,,SKC,0.00,VWS V14.01,2013-03-22 14:12:00,
2013-03-22 10:17:00,29.0,15.3,30.07,ESE,113,0.0,0.0,56,0.00,,SKC,0.00,VWS V14.01,2013-03-22 14:17:00,
2013-03-22 10:22:00,28.9,15.2,30.07,ESE,113,0.0,0.0,56,0.00,,SKC,0.00,VWS V14.01,2013-03-22 14:22:00,
2013-03-22 10:27:00,29.0,15.3,30.07,ESE,113,1.0,1.0,56,0.00,,SKC,0.00,VWS V14.01,2013-03-22 14:27:00,
2013-03-22 10:32:00,29.2,15.5,30.07,ESE,113,1.0,1.0,56,0.00,,SKC,0.00,VWS V14.01,2013-03-22 14:32:00,
2013-03-22 10:37:00,29.7,15.5,30.08,ESE,113,0.0,0.0,55,0.00,,SKC,0.00,VWS V14.01,2013-03-22 14:37:00,
2013-03-22 10:42:00,30.0,15.8,30.07,ESE,113,0.0,0.0,55,0.00,,SKC,0.00,VWS V14.01,2013-03-22 14:42:00,
2013-03-22 10:47:00,30.3,15.7,30.07,ESE,113,0.0,0.0,54,0.00,,SKC,0.00,VWS V14.01,2013-03-22 14:47:00,
2013-03-22 10:52:00,30.5,15.4,30.07,ESE,113,0.0,0.0,53,0.00,,SKC,0.00,VWS V14.01,2013-03-22 14:52:00,
2013-03-22 10:57:00,30.9,16.6,30.07,ESE,113,2.0,2.0,55,0.00,,SKC,0.00,VWS V14.01,2013-03-22 14:57:00,
2013-03-22 11:02:00,31.1,15.1,30.07,ESE,105,0.0,0.0,51,0.00,,SKC,0.00,VWS V14.01,2013-03-22 15:02:00,
2013-03-22 11:07:00,31.6,16.0,30.07,ESE,105,0.0,1.0,52,0.00,,SKC,0.00,VWS V14.01,2013-03-22 15:07:00,
2013-03-22 11:12:00,32.2,15.7,30.06,East,80,3.0,5.0,50,0.00,,SKC,0.00,VWS V14.01,2013-03-22 15:12:00,
2013-03-22 11:17:00,32.6,15.6,30.06,WNW,299,0.0,3.0,49,0.00,,SKC,0.00,VWS V14.01,2013-03-22 15:17:00,
2013-03-22 11:22:00,32.9,15.4,30.06,NW,317,0.0,0.0,48,0.00,,SKC,0.00,VWS V14.01,2013-03-22 15:22:00,
2013-03-22 11:27:00,33.5,15.9,30.06,NNW,333,0.0,1.0,48,0.00,,SKC,0.00,VWS V14.01,2013-03-22 15:27:00,
2013-03-22 11:32:00,33.9,14.8,30.06,NNW,338,2.0,4.0,45,0.00,,SKC,0.00,VWS V14.01,2013-03-22 15:32:00,
2013-03-22 11:37:00,34.1,15.0,30.06,NNW,338,0.0,0.0,45,0.00,,SKC,0.00,VWS V14.01,2013-03-22 15:37:00,
2013-03-22 11:42:00,34.1,15.5,30.06,NNE,17,2.0,2.0,46,0.00,,SKC,0.00,VWS V14.01,2013-03-22 15:42:00,
2013-03-22 11:47:00,34.4,15.8,30.06,NNE,17,1.0,1.0,46,0.00,,SKC,0.00,VWS V14.01,2013-03-22 15:47:00,
2013-03-22 11:52:00,34.9,16.2,30.06,NNE,15,5.0,5.0,46,0.00,,SKC,0.00,VWS V14.01,2013-03-22 15:52:00,
2013-03-22 11:57:00,35.2,16.0,30.05,NNE,12,2.0,4.0,45,0.00,,SKC,0.00,VWS V14.01,2013-03-22 15:57:00,
2013-03-22 12:02:00,35.5,16.8,30.05,North,11,0.0,0.0,46,0.00,,SKC,0.00,VWS V14.01,2013-03-22 16:02:00,
2013-03-22 12:07:00,36.4,16.6,30.05,North,11,0.0,2.0,44,0.00,,SKC,0.00,VWS V14.01,2013-03-22 16:07:00,
2013-03-22 12:12:00,36.9,16.0,30.05,North,11,0.0,1.0,42,0.00,,SKC,0.00,VWS V14.01,2013-03-22 16:12:00,
2013-03-22 12:17:00,37.0,16.1,30.05,NNE,12,1.0,2.0,42,0.00,,SKC,0.00,VWS V14.01,2013-03-22 16:17:00,
2013-03-22 12:22:00,36.9,17.0,30.05,North,11,2.0,4.0,44,0.00,,SKC,0.00,VWS V14.01,2013-03-22 16:22:00,
2013-03-22 12:27:00,37.5,18.1,30.05,North,5,3.0,4.0,45,0.00,,SKC,0.00,VWS V14.01,2013-03-22 16:27:00,
2013-03-22 12:32:00,38.1,17.0,30.04,North,5,2.0,3.0,42,0.00,,SKC,0.00,VWS V14.01,2013-03-22 16:32:00,
2013-03-22 12:37:00,38.5,18.5,30.04,North,5,3.0,3.0,44,0.00,,SKC,0.00,VWS V14.01,2013-03-22 16:37:00,
2013-03-22 12:42:00,39.1,18.0,30.04,North,355,2.0,2.0,42,0.00,,SKC,0.00,VWS V14.01,2013-03-22 16:42:00,
2013-03-22 12:47:00,40.2,18.4,30.04,North,355,3.0,3.0,41,0.00,,SKC,0.00,VWS V14.01,2013-03-22 16:47:00,
2013-03-22 12:52:00,41.3,21.0,30.03,North,351,6.0,6.0,44,0.00,,SKC,0.00,VWS V14.01,2013-03-22 16:52:00,
2013-03-22 12:57:00,41.7,20.3,30.03,NNW,340,4.0,4.0,42,0.00,,SKC,0.00,VWS V14.01,2013-03-22 16:57:00,
2013-03-22 13:02:00,42.2,19.0,30.03,NNW,336,0.0,1.0,39,0.00,,SKC,0.00,VWS V14.01,2013-03-22 17:02:00,
2013-03-22 13:07:00,42.0,18.9,30.03,North,355,0.0,2.0,39,0.00,,SKC,0.00,VWS V14.01,2013-03-22 17:07:00,
2013-03-22 13:12:00,42.3,19.7,30.03,NNW,341,2.0,5.0,40,0.00,,SKC,0.00,VWS V14.01,2013-03-22 17:12:00,
2013-03-22 13:17:00,42.5,19.9,30.02,NNW,342,3.0,3.0,40,0.00,,SKC,0.00,VWS V14.01,2013-03-22 17:17:00,
2013-03-22 13:22:00,42.8,20.8,30.02,NNE,13,6.0,6.0,41,0.00,,SKC,0.00,VWS V14.01,2013-03-22 17:22:00,
2013-03-22 13:27:00,42.5,19.9,30.02,North,360,0.0,4.0,40,0.00,,SKC,0.00,VWS V14.01,2013-03-22 17:27:00,
2013-03-22 13:32:00,43.2,20.5,30.02,East,80,0.0,2.0,40,0.00,,SKC,0.00,VWS V14.01,2013-03-22 17:32:00,
2013-03-22 13:37:00,43.8,21.1,30.02,East,80,1.0,3.0,40,0.00,,SKC,0.00,VWS V14.01,2013-03-22 17:37:00,
2013-03-22 13:42:00,44.0,20.6,30.02,NNW,330,3.0,3.0,39,0.00,,SKC,0.00,VWS V14.01,2013-03-22 17:42:00,
2013-03-22 13:47:00,44.6,20.6,30.02,NNW,327,2.0,2.0,38,0.00,,SKC,0.00,VWS V14.01,2013-03-22 17:47:00,
2013-03-22 13:52:00,44.5,20.5,30.02,NNW,327,0.0,1.0,38,0.00,,SKC,0.00,VWS V14.01,2013-03-22 17:52:00,
2013-03-22 13:57:00,44.8,20.1,30.03,NE,38,3.0,7.0,37,0.00,,SKC,0.00,VWS V14.01,2013-03-22 17:57:00,
2013-03-22 14:02:00,44.5,19.9,30.03,North,11,1.0,3.0,37,0.00,,SKC,0.00,VWS V14.01,2013-03-22 18:02:00,
2013-03-22 14:07:00,44.3,19.0,30.02,NE,45,4.0,5.0,36,0.00,,SKC,0.00,VWS V14.01,2013-03-22 18:07:00,
2013-03-22 14:12:00,43.5,19.0,30.02,ENE,60,1.0,2.0,37,0.00,,SKC,0.00,VWS V14.01,2013-03-22 18:12:00,
2013-03-22 14:17:00,43.4,20.1,30.02,East,96,3.0,3.0,39,0.00,,SKC,0.00,VWS V14.01,2013-03-22 18:17:00,
2013-03-22 14:22:00,43.4,20.1,30.02,NNE,32,3.0,3.0,39,0.00,,SKC,0.00,VWS V14.01,2013-03-22 18:22:00,
2013-03-22 14:27:00,43.4,20.1,30.02,ESE,113,0.0,3.0,39,0.00,,SKC,0.00,VWS V14.01,2013-03-22 18:27:00,
2013-03-22 14:32:00,43.1,19.2,30.01,ESE,109,2.0,3.0,38,0.00,,SKC,0.00,VWS V14.01,2013-03-22 18:32:00,
2013-03-22 14:37:00,42.7,18.9,30.01,NE,42,4.0,7.0,38,0.00,,SKC,0.00,VWS V14.01,2013-03-22 18:37:00,
2013-03-22 14:42:00,42.4,18.0,30.01,ENE,78,5.0,8.0,37,0.00,,SKC,0.00,VWS V14.01,2013-03-22 18:42:00,
2013-03-22 14:47:00,42.3,18.5,30.01,East,99,6.0,7.0,38,0.00,,SKC,0.00,VWS V14.01,2013-03-22 18:47:00,
2013-03-22 14:52:00,42.4,18.6,30.01,East,84,3.0,3.0,38,0.00,,SKC,0.00,VWS V14.01,2013-03-22 18:52:00,
2013-03-22 14:57:00,42.5,18.1,30.00,East,95,5.0,5.0,37,0.00,,SKC,0.00,VWS V14.01,2013-03-22 18:57:00,
2013-03-22 15:02:00,42.9,17.8,30.00,ESE,123,9.0,9.0,36,0.00,,SKC,0.00,VWS V14.01,2013-03-22 19:02:00,
2013-03-22 15:07:00,43.1,18.0,30.00,NE,44,2.0,4.0,36,0.00,,SKC,0.00,VWS V14.01,2013-03-22 19:07:00,
2013-03-22 15:12:00,43.4,20.7,30.01,NE,42,1.0,2.0,40,0.00,,SKC,0.00,VWS V14.01,2013-03-22 19:12:00,
2013-03-22 15:17:00,44.0,20.6,30.00,NE,40,5.0,5.0,39,0.00,,SKC,0.00,VWS V14.01,2013-03-22 19:17:00,
2013-03-22 15:22:00,44.5,20.5,30.00,ENE,76,3.0,3.0,38,0.00,,SKC,0.00,VWS V14.01,2013-03-22 19:22:00,
2013-03-22 15:27:00,45.0,22.1,30.00,ENE,73,1.0,3.0,40,0.00,,SKC,0.00,VWS V14.01,2013-03-22 19:27:00,
2013-03-22 15:32:00,45.1,21.0,30.00,East,91,2.0,3.0,38,0.00,,SKC,0.00,VWS V14.01,2013-03-22 19:32:00,
2013-03-22 15:37:00,45.1,21.0,30.00,NNE,24,0.0,5.0,38,0.00,,SKC,0.00,VWS V14.01,2013-03-22 19:37:00,
2013-03-22 15:42:00,45.0,21.5,30.00,ENE,67,2.0,8.0,39,0.00,,SKC,0.00,VWS V14.01,2013-03-22 19:42:00,
2013-03-22 15:47:00,45.0,22.7,30.00,ESE,114,2.0,3.0,41,0.00,,SKC,0.00,VWS V14.01,2013-03-22 19:47:00,
2013-03-22 15:52:00,44.9,22.1,30.00,North,355,3.0,4.0,40,0.00,,SKC,0.00,VWS V14.01,2013-03-22 19:52:00,
2013-03-22 15:57:00,44.5,22.9,30.00,North,360,5.0,7.0,42,0.00,,SKC,0.00,VWS V14.01,2013-03-22 19:57:00,
2013-03-22 16:02:00,44.5,23.4,30.01,NE,55,6.0,6.0,43,0.00,,SKC,0.00,VWS V14.01,2013-03-22 20:02:00,
2013-03-22 16:07:00,44.3,23.2,30.00,NW,324,1.0,4.0,43,0.00,,SKC,0.00,VWS V14.01,2013-03-22 20:07:00,
2013-03-22 16:12:00,44.2,23.7,30.00,ENE,71,2.0,2.0,44,0.00,,SKC,0.00,VWS V14.01,2013-03-22 20:12:00,
2013-03-22 16:17:00,44.5,24.5,30.00,ENE,71,0.0,4.0,45,0.00,,SKC,0.00,VWS V14.01,2013-03-22 20:17:00,
2013-03-22 16:22:00,45.0,26.0,30.00,ESE,114,4.0,4.0,47,0.00,,SKC,0.00,VWS V14.01,2013-03-22 20:22:00,
2013-03-22 16:27:00,45.0,25.5,30.00,NNE,13,1.0,5.0,46,0.00,,SKC,0.00,VWS V14.01,2013-03-22 20:27:00,
2013-03-22 16:32:00,44.9,27.4,30.00,East,84,3.0,5.0,50,0.00,,SKC,0.00,VWS V14.01,2013-03-22 20:32:00,
2013-03-22 16:37:00,44.6,26.6,30.00,NE,55,4.0,4.0,49,0.00,,SKC,0.00,VWS V14.01,2013-03-22 20:37:00,
2013-03-22 16:42:00,44.4,26.9,30.01,SSE,155,0.0,4.0,50,0.00,,SKC,0.00,VWS V14.01,2013-03-22 20:42:00,
2013-03-22 16:47:00,44.3,28.3,30.01,East,101,3.0,3.0,53,0.00,,SKC,0.00,VWS V14.01,2013-03-22 20:47:00,
2013-03-22 16:52:00,44.2,27.7,30.00,SSE,161,3.0,3.0,52,0.00,,SKC,0.00,VWS V14.01,2013-03-22 20:52:00,
2013-03-22 16:57:00,44.2,28.6,30.00,SSE,164,3.0,4.0,54,0.00,,SKC,0.00,VWS V14.01,2013-03-22 20:57:00,
2013-03-22 17:02:00,44.2,28.6,30.00,WSW,257,1.0,1.0,54,0.00,,SKC,0.00,VWS V14.01,2013-03-22 21:02:00,
2013-03-22 17:07:00,44.4,29.3,30.00,NNE,24,2.0,5.0,55,0.00,,SKC,0.00,VWS V14.01,2013-03-22 21:07:00,
2013-03-22 17:12:00,44.3,29.2,30.00,NE,41,0.0,1.0,55,0.00,,SKC,0.00,VWS V14.01,2013-03-22 21:12:00,
2013-03-22 17:17:00,44.3,29.6,30.00,NE,42,0.0,1.0,56,0.00,,SKC,0.00,VWS V14.01,2013-03-22 21:17:00,
2013-03-22 17:22:00,44.3,29.6,30.00,NE,42,1.0,1.0,56,0.00,,SKC,0.00,VWS V14.01,2013-03-22 21:22:00,
2013-03-22 17:27:00,44.3,30.5,30.00,NE,41,3.0,3.0,58,0.00,,SKC,0.00,VWS V14.01,2013-03-22 21:27:00,
2013-03-22 17:32:00,44.6,29.9,30.00,North,360,5.0,6.0,56,0.00,,SKC,0.00,VWS V14.01,2013-03-22 21:32:00,
2013-03-22 17:37:00,44.9,29.7,30.00,North,360,8.0,8.0,55,0.00,,SKC,0.00,VWS V14.01,2013-03-22 21:37:00,
2013-03-22 17:42:00,44.8,29.6,30.00,NE,46,3.0,5.0,55,0.00,,SKC,0.00,VWS V14.01,2013-03-22 21:42:00,
2013-03-22 17:47:00,44.8,29.6,30.00,NE,38,6.0,6.0,55,0.00,,SKC,0.00,VWS V14.01,2013-03-22 21:47:00,
2013-03-22 17:52:00,44.7,30.0,30.00,North,9,2.0,2.0,56,0.00,,SKC,0.00,VWS V14.01,2013-03-22 21:52:00,
2013-03-22 17:57:00,44.9,29.7,30.00,North,5,1.0,2.0,55,0.00,,SKC,0.00,VWS V14.01,2013-03-22 21:57:00,
2013-03-22 18:02:00,44.8,29.6,30.01,North,10,1.0,7.0,55,0.00,,SKC,0.00,VWS V14.01,2013-03-22 22:02:00,
2013-03-22 18:07:00,44.7,29.5,30.00,NW,307,2.0,6.0,55,0.00,,SKC,0.00,VWS V14.01,2013-03-22 22:07:00,
2013-03-22 18:12:00,44.5,29.4,30.00,North,355,4.0,7.0,55,0.00,,SKC,0.00,VWS V14.01,2013-03-22 22:12:00,
2013-03-22 18:17:00,44.6,29.9,30.00,North,355,0.0,0.0,56,0.00,,SKC,0.00,VWS V14.01,2013-03-22 22:17:00,
2013-03-22 18:22:00,44.7,29.5,30.00,NNE,33,0.0,3.0,55,0.00,,SKC,0.00,VWS V14.01,2013-03-22 22:22:00,
2013-03-22 18:27:00,44.7,29.5,30.00,NNE,32,0.0,3.0,55,0.00,,SKC,0.00,VWS V14.01,2013-03-22 22:27:00,
2013-03-22 18:32:00,45.0,30.3,30.00,NNE,19,0.0,3.0,56,0.00,,SKC,0.00,VWS V14.01,2013-03-22 22:32:00,
2013-03-22 18:37:00,45.0,29.8,29.82,NNE,19,2.0,3.0,55,0.00,,SKC,0.00,VWS V14.01,2013-03-22 22:37:00,
2013-03-22 18:42:00,44.8,30.1,30.00,NNE,19,2.0,4.0,56,0.00,,SKC,0.00,VWS V14.01,2013-03-22 22:42:00,
2013-03-22 18:47:00,44.6,30.3,30.00,NNE,18,2.0,2.0,57,0.00,,SKC,0.00,VWS V14.01,2013-03-22 22:47:00,
2013-03-22 18:52:00,44.4,30.1,30.00,NNE,18,0.0,2.0,57,0.00,,SKC,0.00,VWS V14.01,2013-03-22 22:52:00,
2013-03-22 18:57:00,44.2,30.0,30.01,NNE,19,0.0,3.0,57,0.00,,SKC,0.00,VWS V14.01,2013-03-22 22:57:00,
2013-03-22 19:02:00,44.0,30.2,30.01,North,5,0.0,3.0,58,0.00,,SKC,0.00,VWS V14.01,2013-03-22 23:02:00,
2013-03-22 19:07:00,43.9,30.1,30.01,North,360,0.0,1.0,58,0.00,,SKC,0.00,VWS V14.01,2013-03-22 23:07:00,
2013-03-22 19:12:00,43.8,30.0,30.01,NNE,30,1.0,4.0,58,0.00,,SKC,0.00,VWS V14.01,2013-03-22 23:12:00,
2013-03-22 19:17:00,43.7,29.9,30.01,NE,34,0.0,1.0,58,0.00,,SKC,0.00,VWS V14.01,2013-03-22 23:17:00,
2013-03-22 19:22:00,43.6,29.8,30.01,NE,34,0.0,4.0,58,0.00,,SKC,0.00,VWS V14.01,2013-03-22 23:22:00,
2013-03-22 19:27:00,43.5,30.1,30.01,NE,34,0.0,0.0,59,0.00,,SKC,0.00,VWS V14.01,2013-03-22 23:27:00,
2013-03-22 19:32:00,43.4,30.0,30.01,NE,34,1.0,1.0,59,0.00,,SKC,0.00,VWS V14.01,2013-03-22 23:32:00,
2013-03-22 19:37:00,43.3,30.4,30.01,NE,34,0.0,1.0,60,0.00,,SKC,0.00,VWS V14.01,2013-03-22 23:37:00,
2013-03-22 19:42:00,43.2,29.9,30.01,NE,34,2.0,3.0,59,0.00,,SKC,0.00,VWS V14.01,2013-03-22 23:42:00,
2013-03-22 19:47:00,43.1,29.8,30.01,NNE,32,1.0,2.0,59,0.00,,SKC,0.00,VWS V14.01,2013-03-22 23:47:00,
2013-03-22 19:52:00,43.0,30.1,30.02,NNE,32,3.0,3.0,60,0.00,,SKC,0.00,VWS V14.01,2013-03-22 23:52:00,
2013-03-22 19:57:00,42.9,30.0,30.02,NNE,32,0.0,2.0,60,0.00,,SKC,0.00,VWS V14.01,2013-03-22 23:57:00,
2013-03-22 20:02:00,42.8,29.9,30.02,NE,37,0.0,2.0,60,0.00,,SKC,0.00,VWS V14.01,2013-03-23 00:02:00,
2013-03-22 20:07:00,42.7,30.2,30.02,NE,37,0.0,0.0,61,0.00,,SKC,0.00,VWS V14.01,2013-03-23 00:07:00,
2013-03-22 20:12:00,42.7,29.8,30.02,NE,37,0.0,0.0,60,0.00,,SKC,0.00,VWS V14.01,2013-03-23 00:12:00,
2013-03-22 20:17:00,42.6,30.1,30.02,NE,37,0.0,0.0,61,0.00,,SKC,0.00,VWS V14.01,2013-03-23 00:17:00,
2013-03-22 20:22:00,42.6,30.1,30.02,NE,37,0.0,0.0,61,0.00,,SKC,0.00,VWS V14.01,2013-03-23 00:22:00,
2013-03-22 20:27:00,42.5,30.4,30.02,NW,326,0.0,3.0,62,0.00,,SKC,0.00,VWS V14.01,2013-03-23 00:27:00,
2013-03-22 20:32:00,42.5,30.0,30.02,NW,326,0.0,1.0,61,0.00,,SKC,0.00,VWS V14.01,2013-03-23 00:32:00,
2013-03-22 20:37:00,42.5,30.4,30.02,NW,326,2.0,2.0,62,0.00,,SKC,0.00,VWS V14.01,2013-03-23 00:37:00,
2013-03-22 20:42:00,42.5,30.4,30.02,North,11,6.0,6.0,62,0.00,,SKC,0.00,VWS V14.01,2013-03-23 00:42:00,
2013-03-22 20:47:00,42.4,30.3,30.02,NNE,12,0.0,0.0,62,0.00,,SKC,0.00,VWS V14.01,2013-03-23 00:47:00,
2013-03-22 20:52:00,42.4,30.7,30.02,NNE,12,0.0,1.0,63,0.00,,SKC,0.00,VWS V14.01,2013-03-23 00:52:00,
2013-03-22 20:57:00,42.4,30.7,30.02,NNE,12,1.0,1.0,63,0.00,,SKC,0.00,VWS V14.01,2013-03-23 00:57:00,
2013-03-22 21:02:00,42.3,30.6,30.03,North,11,0.0,0.0,63,0.00,,SKC,0.00,VWS V14.01,2013-03-23 01:02:00,
2013-03-22 21:07:00,42.3,30.6,30.03,NNE,12,3.0,3.0,63,0.00,,SKC,0.00,VWS V14.01,2013-03-23 01:07:00,
2013-03-22 21:12:00,42.1,30.4,30.03,NNE,12,0.0,1.0,63,0.00,,SKC,0.00,VWS V14.01,2013-03-23 01:12:00,
2013-03-22 21:17:00,42.0,30.7,30.03,NNE,12,0.0,1.0,64,0.00,,SKC,0.00,VWS V14.01,2013-03-23 01:17:00,
2013-03-22 21:22:00,41.8,30.5,30.03,North,11,1.0,2.0,64,0.00,,SKC,0.00,VWS V14.01,2013-03-23 01:22:00,
2013-03-22 21:27:00,41.7,30.8,30.03,NNE,12,0.0,0.0,65,0.00,,SKC,0.00,VWS V14.01,2013-03-23 01:27:00,
2013-03-22 21:32:00,41.7,30.8,30.03,NNE,12,0.0,0.0,65,0.00,,SKC,0.00,VWS V14.01,2013-03-23 01:32:00,
2013-03-22 21:37:00,41.6,31.1,30.04,North,11,0.0,0.0,66,0.00,,SKC,0.00,VWS V14.01,2013-03-23 01:37:00,
2013-03-22 21:42:00,41.6,30.7,30.04,North,11,0.0,1.0,65,0.00,,SKC,0.00,VWS V14.01,2013-03-23 01:42:00,
2013-03-22 21:47:00,41.6,30.7,30.04,North,11,0.0,0.0,65,0.00,,SKC,0.00,VWS V14.01,2013-03-23 01:47:00,
2013-03-22 21:52:00,41.6,30.7,30.04,North,11,1.0,1.0,65,0.00,,SKC,0.00,VWS V14.01,2013-03-23 01:52:00,
2013-03-22 21:57:00,41.6,30.7,30.03,North,11,0.0,0.0,65,0.00,,SKC,0.00,VWS V14.01,2013-03-23 01:57:00,
2013-03-22 22:02:00,41.6,31.1,30.04,NNE,12,4.0,4.0,66,0.00,,SKC,0.00,VWS V14.01,2013-03-23 02:02:00,
2013-03-22 22:07:00,41.6,30.7,30.04,NNE,12,1.0,4.0,65,0.00,,SKC,0.00,VWS V14.01,2013-03-23 02:07:00,
2013-03-22 22:12:00,41.6,30.7,30.04,NNE,12,2.0,2.0,65,0.00,,SKC,0.00,VWS V14.01,2013-03-23 02:12:00,
2013-03-22 22:17:00,41.6,30.7,30.04,NNE,12,0.0,1.0,65,0.00,,SKC,0.00,VWS V14.01,2013-03-23 02:17:00,
2013-03-22 22:22:00,41.5,30.6,30.03,NNE,12,2.0,2.0,65,0.00,,SKC,0.00,VWS V14.01,2013-03-23 02:22:00,
2013-03-22 22:27:00,41.5,31.0,30.03,NNE,12,1.0,1.0,66,0.00,,SKC,0.00,VWS V14.01,2013-03-23 02:27:00,
2013-03-22 22:32:00,41.4,30.9,30.04,NNE,12,1.0,2.0,66,0.00,,SKC,0.00,VWS V14.01,2013-03-23 02:32:00,
2013-03-22 22:37:00,41.4,30.9,30.04,NNE,12,3.0,4.0,66,0.00,,SKC,0.00,VWS V14.01,2013-03-23 02:37:00,
2013-03-22 22:42:00,41.3,31.2,30.03,NNE,12,0.0,1.0,67,0.00,,SKC,0.00,VWS V14.01,2013-03-23 02:42:00,
2013-03-22 22:47:00,41.1,31.4,30.04,NNE,12,1.0,1.0,68,0.00,,SKC,0.00,VWS V14.01,2013-03-23 02:47:00,
2013-03-22 22:52:00,41.0,30.9,30.04,NNE,12,2.0,3.0,67,0.00,,SKC,0.00,VWS V14.01,2013-03-23 02:52:00,
2013-03-22 22:57:00,41.0,30.9,30.04,NNE,12,0.0,1.0,67,0.00,,SKC,0.00,VWS V14.01,2013-03-23 02:57:00,
2013-03-22 23:02:00,41.0,32.3,30.04,NNE,12,0.0,0.0,71,0.00,,SKC,0.00,VWS V14.01,2013-03-23 03:02:00,
2013-03-22 23:07:00,40.9,31.2,30.04,NNE,12,0.0,0.0,68,0.00,,SKC,0.00,VWS V14.01,2013-03-23 03:07:00,
2013-03-22 23:12:00,40.8,30.7,30.04,NNE,12,0.0,0.0,67,0.00,,SKC,0.00,VWS V14.01,2013-03-23 03:12:00,
2013-03-22 23:17:00,40.8,30.7,30.04,NNE,12,0.0,0.0,67,0.00,,SKC,0.00,VWS V14.01,2013-03-23 03:17:00,
2013-03-22 23:22:00,40.8,31.1,30.04,North,11,0.0,0.0,68,0.00,,SKC,0.00,VWS V14.01,2013-03-23 03:22:00,
2013-03-22 23:27:00,40.7,31.3,30.04,North,11,0.0,0.0,69,0.00,,SKC,0.00,VWS V14.01,2013-03-23 03:27:00,
2013-03-22 23:32:00,40.7,31.7,30.04,North,11,0.0,0.0,70,0.00,,SKC,0.00,VWS V14.01,2013-03-23 03:32:00,
2013-03-22 23:37:00,40.7,31.3,30.04,North,11,0.0,0.0,69,0.00,,SKC,0.00,VWS V14.01,2013-03-23 03:37:00,
2013-03-22 23:42:00,40.6,31.6,30.03,NNE,12,0.0,0.0,70,0.00,,SKC,0.00,VWS V14.01,2013-03-23 03:42:00,
2013-03-22 23:47:00,40.5,31.5,30.04,NNE,12,0.0,0.0,70,0.00,,SKC,0.00,VWS V14.01,2013-03-23 03:47:00,
2013-03-22 23:52:00,40.5,31.1,30.03,North,11,0.0,0.0,69,0.00,,SKC,0.00,VWS V14.01,2013-03-23 03:52:00,
2013-03-22 23:57:00,40.4,30.7,30.03,North,11,0.0,0.0,68,0.00,,SKC,0.00,VWS V14.01,2013-03-23 03:57:00,